Location: Karaa?a�
(36.7158°N, 30.4165°E)
Time: 01:19:26
(UTC+00:00)

NOSS 3-4 (A) - Pass Details

Date: 09 April 2020
Orbit: 892 x 1320 km, 63.4° (Epoch: 01 June)

Event Time Altitude Azimuth Distance (km) Brightness Sun altitude
Rises 17:39:52 0° 329° (NNW) 3,879 7.5 -14.7°
Reaches altitude 10° 17:42:27 10° 332° (NNW) 2,980 6.8 -15.1°
Maximum altitude 17:49:38 72° 57° (ENE) 1,250 3.9 -16.5°
Enters shadow 17:55:05 22° 138° (SE) 2,451 5.0 -17.5°
